Tracking 18843 objects as of 20-November-2017
HD Live streaming from Space Station
objects crossing your sky now

RADUGA 19

Track RADUGA 19 now!
RADUGA 19 is classified as:


NORAD ID: 17046
Int'l Code: 1986-082A
Perigee: 36,282.8 km
Apogee: 36,335.2 km
Inclination: 15.1 °
Period: 1,462.5 minutes
Semi major axis: 42679 km
RCS: 5.2886 m2 (large)
Launch date: October 25, 1986
Source: Commonwealth of Independent States (former USSR) (CIS)
Launch site: TYURATAM MISSILE AND SPACE COMPLEX (TTMTR)
aabbcc
Your satellite tracking list
Your tracking list is empty




NASA's NSSDC Master Catalog

Two Line Element Set (TLE):
1 17046U 86082A   17322.80393287 -.00000160 +00000-0 +00000-0 0  9995
2 17046 015.1091 351.2380 0006138 123.3430 246.1748 00.98461463112077
Source of the keplerian elements: AFSPC